DW4362 Weather Reports


time (UTC)temp
C
wind
direction
speed
KPH
gust
KPH
rain 1hr
cm
rain 24hr
cm
rain mn
cm
humidity
%
barometer
mb
20260903203158 32 99 0.0 3.2 0.00 0.03 0.03 64 1012.8
20260903200228 33 171 0.0 3.2 0.00 0.10 0.03 61 1013.1
20260903193158 33 13 3.2 8.0 0.00 0.64 0.03 60 1013.4
20260903183158 31 82 3.2 3.2 0.00 0.64 0.03 73 1014.0
20260903180228 31 234 0.0 0.0 0.00 0.64 0.03 70 1014.3
20260903173158 31 84 3.2 3.2 0.00 0.64 0.03 70 1014.6
20260903163157 31 259 0.0 3.2 0.00 0.64 0.03 73 1015.1
20260903153157 30 15 4.8 8.0 0.00 0.64 0.03 78 1015.1
20260903150227 28 349 0.0 3.2 0.00 0.64 0.03 83 1015.0
20260903143157 28 30 0.0 0.0 0.00 0.64 0.03 86 1014.9
20260903140227 27 1 0.0 0.0 0.00 0.64 0.03 89 1014.9
20260903133227 27 14 0.0 0.0 0.00 0.64 0.03 89 1015.0
20260903130227 25 316 4.8 4.8 0.00 0.64 0.03 96 1014.9
20260903123226 24 314 0.0 0.0 0.00 0.64 0.03 95 1014.7
20260903120226 24 321 0.0 0.0 0.00 0.64 0.03 95 1014.6
20260903113226 23 140 0.0 0.0 0.00 0.64 0.03 95 1014.2
20260903110225 23 141 0.0 0.0 0.00 0.64 0.03 95 1014.0
20260903103226 23 140 0.0 0.0 0.00 0.64 0.03 95 1014.2
20260903100225 23 140 0.0 0.0 0.00 0.64 0.03 94 1013.8
20260903093225 23 140 0.0 0.0 0.03 0.64 0.03 94 1014.0
20260903090225 23 140 0.0 0.0 0.03 0.64 0.03 94 1013.9
20260903083225 23 140 0.0 0.0 0.00 0.61 0.00 94 1014.1
20260903073225 24 140 0.0 0.0 0.00 0.61 0.00 94 1014.0
20260903070225 24 140 0.0 0.0 0.00 0.61 0.00 94 1014.4
20260903063225 24 140 0.0 0.0 0.00 0.61 0.00 94 1014.6
20260903060225 24 140 0.0 0.0 0.00 0.61 0.00 95 1014.8
20260903053224 25 140 0.0 0.0 0.00 0.61 0.00 94 1015.2
20260903050225 25 140 0.0 0.0 0.00 0.61 0.00 95 1014.9
20260903043224 25 140 0.0 0.0 0.00 0.61 0.61 95 1014.9
20260903040224 25 139 0.0 0.0 0.00 0.61 0.61 95 1014.7
20260903033224 25 139 0.0 0.0 0.00 0.61 0.61 95 1014.8
20260903030224 25 139 0.0 0.0 0.00 0.61 0.61 95 1014.8
20260903023224 25 139 0.0 0.0 0.00 0.61 0.61 95 1014.7
20260903020224 26 139 0.0 0.0 0.00 0.61 0.61 95 1014.6
20260903000226 27 139 0.0 0.0 0.00 0.61 0.61 93 1013.7
20260902233224 27 139 0.0 0.0 0.00 0.61 0.61 91 1013.5
20260902230224 28 139 0.0 0.0 0.00 0.61 0.61 86 1013.3
20260902223224 29 161 0.0 0.0 0.00 0.61 0.61 84 1013.7
20260902220224 29 160 0.0 0.0 0.00 0.61 0.61 87 1013.9
20260902213224 28 199 0.0 0.0 0.00 0.61 0.61 91 1014.1